WXM80 ListenWXM80 Stop

You find our weather info also at:

UK Metoffice

WeatherCloud

Weather Underground

Northeastern Weather Network

AWEKAS

Citizen Weather Observer Program (CWOP)

HAMweather, WeatherForYou, PWS Weather


Weather Underground History page Text

Daily Summary for April 21, 2017 Units:  English    Metric   Both
« Previous Day
Next Day »
Daily Weekly Monthly Yearly Custom
  High: Low: Average:
Temperature: 52.0 °F 46.7 °F 48.4 °F
Dew Point: 48.9 °F 46.2 °F 47.4 °F
Humidity: 98 % 88 % 96 %
Wind Speed: 9.5 mph 0.0 mph 4.6 mph
Wind Gust: 12.7 mph - -
Wind:- - ENE
Pressure: 30.04 in 29.86 in -
Precipitation: 0.00 in    
Historical Graphs
 
 
Tabular Data for April 21, 2017
Time Temperature Dew Point Pressure Wind Wind Speed Wind Gust Humidity Rainfall Rate (Hourly)
00:03 52.0 °F 48.9 °F 30.04 in SE 1.2 mph 6.0 mph 89 % 0.00 in
00:08 51.9 °F 48.8 °F 30.03 in ESE 3.8 mph 7.0 mph 89 % 0.00 in
00:13 51.8 °F 48.7 °F 30.03 in ESE 1.9 mph 3.0 mph 89 % 0.00 in
00:18 51.8 °F 48.7 °F 30.02 in ESE 1.0 mph 3.5 mph 89 % 0.00 in
00:23 51.7 °F 48.6 °F 30.02 in ESE 2.6 mph 6.9 mph 89 % 0.00 in
00:28 51.7 °F 48.6 °F 30.02 in ESE 1.6 mph 4.6 mph 89 % 0.00 in
00:33 51.7 °F 48.6 °F 30.02 in SE 0.6 mph 3.5 mph 89 % 0.00 in
00:38 51.7 °F 48.6 °F 30.02 in ESE 1.9 mph 3.5 mph 89 % 0.00 in
00:39 51.7 °F 48.6 °F 30.02 in ESE 1.6 mph 3.5 mph 89 % 0.00 in
00:44 51.6 °F 48.5 °F 30.02 in East 4.5 mph 6.0 mph 89 % 0.00 in
00:49 51.6 °F 48.5 °F 30.02 in East 2.5 mph 5.0 mph 89 % 0.00 in
00:54 51.5 °F 48.4 °F 30.01 in East 3.4 mph 6.9 mph 89 % 0.00 in
00:59 51.5 °F 48.4 °F 30.02 in East 3.5 mph 6.9 mph 89 % 0.00 in
01:04 51.4 °F 48.0 °F 30.02 in East 3.3 mph 4.6 mph 88 % 0.00 in
01:09 51.3 °F 48.2 °F 30.02 in East 4.8 mph 8.0 mph 89 % 0.00 in
01:14 51.2 °F 48.1 °F 30.01 in East 6.1 mph 9.0 mph 89 % 0.00 in
01:19 51.1 °F 47.7 °F 30.01 in East 4.3 mph 5.8 mph 88 % 0.00 in
01:24 51.0 °F 47.9 °F 30.00 in East 2.7 mph 6.0 mph 89 % 0.00 in
01:29 51.0 °F 47.9 °F 30.00 in East 4.2 mph 5.8 mph 89 % 0.00 in
01:34 50.8 °F 47.7 °F 29.99 in East 3.6 mph 6.9 mph 89 % 0.00 in
01:39 50.7 °F 47.6 °F 29.99 in East 2.3 mph 5.8 mph 89 % 0.00 in
01:44 50.7 °F 47.6 °F 29.99 in East 3.1 mph 6.0 mph 89 % 0.00 in
01:49 50.6 °F 47.5 °F 30.02 in SSE 2.6 mph 3.5 mph 89 % 0.00 in
01:54 50.5 °F 47.4 °F 30.01 in SSE 0.7 mph 3.5 mph 89 % 0.00 in
02:00 50.5 °F 47.7 °F 30.01 in ESE 1.6 mph 3.5 mph 90 % 0.05 in
02:05 50.3 °F 47.5 °F 30.01 in SE 1.7 mph 6.0 mph 90 % 0.07 in
02:10 50.1 °F 47.6 °F 30.01 in Calm   1.2 mph 91 % 0.09 in
02:15 50.1 °F 47.6 °F 30.01 in Calm     91 % 0.11 in
02:20 50.0 °F 47.5 °F 30.01 in SE 0.5 mph 1.2 mph 91 % 0.14 in
02:23 49.9 °F 47.4 °F 30.01 in Calm     91 % 0.15 in
02:28 49.8 °F 47.6 °F 29.99 in ENE 2.6 mph 3.5 mph 92 % 0.17 in
02:38 49.4 °F 47.5 °F 29.97 in East 5.4 mph 6.9 mph 93 % 0.19 in
02:43 49.3 °F 47.4 °F 29.97 in East 3.7 mph 5.8 mph 93 % 0.19 in
02:48 49.1 °F 47.2 °F 29.97 in East 4.5 mph 6.9 mph 93 % 0.19 in
02:53 49.0 °F 47.3 °F 29.96 in East 3.1 mph 4.6 mph 94 % 0.19 in
02:58 48.9 °F 47.2 °F 29.97 in East 3.2 mph 6.9 mph 94 % 0.15 in
03:03 48.8 °F 47.2 °F 29.97 in East 1.7 mph 2.3 mph 94 % 0.13 in
03:08 48.8 °F 47.2 °F 29.97 in ENE 2.4 mph 3.5 mph 94 % 0.11 in
03:13 48.8 °F 47.2 °F 29.97 in East 2.3 mph 5.8 mph 94 % 0.08 in
03:18 48.7 °F 47.3 °F 29.97 in East 2.1 mph 4.6 mph 95 % 0.05 in
03:23 48.7 °F 47.3 °F 29.97 in East 2.1 mph 4.6 mph 95 % 0.04 in
03:28 48.7 °F 47.3 °F 29.96 in East 1.6 mph 4.6 mph 95 % 0.02 in
03:33 48.7 °F 47.3 °F 29.96 in East 2.0 mph 4.6 mph 95 % 0.01 in
03:38 48.7 °F 47.3 °F 29.97 in East 1.7 mph 3.5 mph 95 % 0.00 in
03:43 48.7 °F 47.3 °F 29.97 in East 1.6 mph 2.3 mph 95 % 0.00 in
03:48 48.7 °F 47.3 °F 29.97 in East 0.1 mph 1.2 mph 95 % 0.00 in
03:53 48.7 °F 47.3 °F 29.97 in East 0.5 mph 2.3 mph 95 % 0.00 in
03:58 48.6 °F 47.2 °F 29.96 in East 1.0 mph 2.3 mph 95 % 0.00 in
04:03 48.7 °F 47.3 °F 29.96 in East 1.2 mph 3.5 mph 95 % 0.00 in
04:08 48.7 °F 47.3 °F 29.95 in East 1.9 mph 4.6 mph 95 % 0.00 in
04:13 48.7 °F 47.3 °F 29.95 in East 0.9 mph 2.3 mph 95 % 0.00 in
04:18 48.7 °F 47.6 °F 29.95 in East 1.2 mph 3.0 mph 96 % 0.00 in
04:23 48.7 °F 47.6 °F 29.95 in East 1.4 mph 2.3 mph 96 % 0.00 in
04:28 48.7 °F 47.6 °F 29.95 in East 2.7 mph 4.6 mph 96 % 0.00 in
04:33 48.7 °F 47.6 °F 29.94 in East 2.9 mph 4.6 mph 96 % 0.00 in
04:38 48.7 °F 47.6 °F 29.95 in East 1.1 mph 2.3 mph 96 % 0.00 in
04:43 48.8 °F 47.7 °F 29.95 in East 1.5 mph 3.5 mph 96 % 0.00 in
04:48 48.8 °F 47.7 °F 29.95 in ESE 1.7 mph 3.5 mph 96 % 0.00 in
04:53 48.8 °F 47.7 °F 29.95 in ESE 0.8 mph 2.3 mph 96 % 0.00 in
04:58 48.8 °F 47.7 °F 29.95 in East 0.4 mph 1.2 mph 96 % 0.00 in
05:03 48.8 °F 47.7 °F 29.95 in ENE 1.5 mph 3.5 mph 96 % 0.00 in
05:08 48.8 °F 47.7 °F 29.94 in ENE 2.5 mph 4.0 mph 96 % 0.00 in
05:13 48.8 °F 47.7 °F 29.94 in East 2.7 mph 4.6 mph 96 % 0.00 in
05:18 48.8 °F 47.7 °F 29.94 in East 2.1 mph 3.5 mph 96 % 0.00 in
05:23 48.8 °F 47.7 °F 29.94 in ENE 2.5 mph 4.0 mph 96 % 0.00 in
05:28 48.7 °F 47.6 °F 29.94 in East 2.9 mph 3.5 mph 96 % 0.00 in
05:33 48.7 °F 47.6 °F 29.93 in East 2.2 mph 3.5 mph 96 % 0.00 in
05:38 48.6 °F 47.5 °F 29.94 in ENE 1.8 mph 3.5 mph 96 % 0.00 in
05:44 48.6 °F 47.5 °F 29.94 in ENE 2.9 mph 4.6 mph 96 % 0.00 in
05:49 48.6 °F 47.5 °F 29.94 in ENE 2.8 mph 3.5 mph 96 % 0.00 in
05:54 48.5 °F 47.4 °F 29.94 in ENE 2.4 mph 4.6 mph 96 % 0.00 in
05:59 48.4 °F 47.3 °F 29.94 in East 1.6 mph 3.5 mph 96 % 0.00 in
06:04 48.4 °F 47.3 °F 29.96 in ENE 1.0 mph 2.3 mph 96 % 0.00 in
06:09 48.3 °F 47.2 °F 29.96 in ENE 1.1 mph 3.5 mph 96 % 0.00 in
06:14 48.3 °F 47.2 °F 29.97 in ENE 0.9 mph 4.0 mph 96 % 0.00 in
06:19 48.2 °F 47.1 °F 29.97 in East 4.9 mph 8.1 mph 96 % 0.00 in
06:24 48.1 °F 47.0 °F 29.96 in ENE 7.8 mph 10.0 mph 96 % 0.00 in
06:29 48.0 °F 46.9 °F 29.96 in ENE 7.4 mph 10.4 mph 96 % 0.00 in
06:34 47.9 °F 46.8 °F 29.96 in ENE 7.8 mph 9.2 mph 96 % 0.00 in
06:39 47.9 °F 46.8 °F 29.96 in ENE 7.0 mph 9.0 mph 96 % 0.00 in
06:44 47.8 °F 46.7 °F 29.97 in ENE 8.0 mph 11.5 mph 96 % 0.00 in
06:49 47.8 °F 46.7 °F 29.96 in East 5.0 mph 7.0 mph 96 % 0.00 in
06:54 47.8 °F 46.7 °F 29.97 in East 5.4 mph 10.0 mph 96 % 0.00 in
06:59 47.8 °F 46.7 °F 30.00 in North 5.0 mph 6.9 mph 96 % 0.00 in
07:04 47.8 °F 47.0 °F 29.99 in NE 6.8 mph 9.2 mph 97 % 0.00 in
07:09 47.7 °F 46.9 °F 29.97 in ENE 7.7 mph 11.5 mph 97 % 0.01 in
07:14 47.6 °F 46.8 °F 29.99 in NE 4.3 mph 10.4 mph 97 % 0.02 in
07:19 47.6 °F 46.8 °F 30.00 in East 3.3 mph 9.2 mph 97 % 0.03 in
07:24 47.5 °F 46.4 °F 29.99 in East 8.7 mph 11.5 mph 96 % 0.06 in
07:29 47.4 °F 46.6 °F 29.99 in ENE 7.2 mph 12.7 mph 97 % 0.08 in
07:34 47.4 °F 46.6 °F 29.99 in ENE 9.5 mph 12.0 mph 97 % 0.08 in
07:39 47.3 °F 46.5 °F 29.98 in ENE 7.8 mph 11.5 mph 97 % 0.08 in
07:44 47.4 °F 46.6 °F 29.97 in NE 7.4 mph 9.2 mph 97 % 0.09 in
07:49 47.4 °F 46.6 °F 29.98 in East 5.6 mph 9.2 mph 97 % 0.09 in
07:54 47.5 °F 46.7 °F 29.98 in ENE 5.5 mph 8.1 mph 97 % 0.09 in
07:59 47.5 °F 46.7 °F 29.97 in East 7.3 mph 9.2 mph 97 % 0.10 in
08:04 47.6 °F 46.8 °F 29.97 in East 6.0 mph 9.2 mph 97 % 0.10 in
08:09 47.5 °F 46.7 °F 29.97 in East 5.5 mph 7.0 mph 97 % 0.10 in
08:14 47.6 °F 46.8 °F 29.97 in East 6.1 mph 7.0 mph 97 % 0.09 in
08:19 47.6 °F 46.8 °F 29.97 in East 6.1 mph 8.1 mph 97 % 0.09 in
08:24 47.7 °F 46.9 °F 29.97 in East 6.3 mph 8.1 mph 97 % 0.07 in
08:29 47.7 °F 46.9 °F 29.96 in East 6.5 mph 8.1 mph 97 % 0.06 in
08:34 47.8 °F 47.0 °F 29.96 in East 6.4 mph 9.2 mph 97 % 0.07 in
08:39 47.8 °F 47.0 °F 29.95 in East 6.5 mph 9.2 mph 97 % 0.08 in
08:44 47.8 °F 47.0 °F 29.95 in East 5.7 mph 8.1 mph 97 % 0.07 in
08:49 47.8 °F 47.0 °F 29.95 in East 6.7 mph 9.2 mph 97 % 0.08 in
08:54 47.9 °F 47.1 °F 29.95 in East 5.2 mph 8.0 mph 97 % 0.09 in
08:59 47.9 °F 47.1 °F 29.95 in East 3.9 mph 6.9 mph 97 % 0.08 in
09:04 47.9 °F 47.1 °F 29.96 in NE 2.7 mph 4.6 mph 97 % 0.09 in
09:09 48.0 °F 47.2 °F 29.95 in ENE 3.0 mph 3.5 mph 97 % 0.08 in
09:14 47.9 °F 47.1 °F 29.95 in ENE 2.7 mph 3.5 mph 97 % 0.08 in
09:19 47.9 °F 47.1 °F 29.95 in East 3.6 mph 5.8 mph 97 % 0.07 in
09:24 48.0 °F 47.2 °F 29.95 in ENE 2.6 mph 3.5 mph 97 % 0.06 in
09:29 48.1 °F 47.3 °F 29.95 in East 2.7 mph 4.6 mph 97 % 0.05 in
09:35 48.1 °F 47.3 °F 29.95 in ENE 2.0 mph 3.5 mph 97 % 0.04 in
09:40 48.2 °F 47.4 °F 29.95 in ENE 3.6 mph 4.0 mph 97 % 0.03 in
09:45 48.1 °F 47.3 °F 29.95 in ENE 3.5 mph 4.6 mph 97 % 0.03 in
09:50 48.0 °F 47.2 °F 29.95 in ENE 5.0 mph 6.9 mph 97 % 0.02 in
09:55 47.8 °F 47.0 °F 29.95 in ENE 5.9 mph 8.1 mph 97 % 0.01 in
10:00 47.7 °F 46.9 °F 29.95 in ENE 5.4 mph 8.1 mph 97 % 0.01 in
10:05 47.7 °F 46.9 °F 29.95 in ENE 5.6 mph 8.1 mph 97 % 0.00 in
10:10 47.7 °F 46.9 °F 29.95 in ENE 6.8 mph 9.2 mph 97 % 0.00 in
10:15 47.8 °F 47.0 °F 29.94 in ENE 6.8 mph 9.2 mph 97 % 0.00 in
10:20 47.8 °F 47.0 °F 29.94 in East 5.5 mph 10.4 mph 97 % 0.00 in
10:25 47.8 °F 47.0 °F 29.94 in ENE 5.1 mph 8.1 mph 97 % 0.00 in
10:30 47.9 °F 47.1 °F 29.93 in East 4.5 mph 6.9 mph 97 % 0.00 in
10:35 48.0 °F 47.5 °F 29.93 in ENE 5.4 mph 9.0 mph 98 % 0.00 in
10:40 48.1 °F 47.6 °F 29.93 in NE 6.0 mph 11.5 mph 98 % 0.00 in
10:45 48.0 °F 47.5 °F 29.94 in ENE 8.5 mph 11.5 mph 98 % 0.00 in
10:50 48.0 °F 47.5 °F 29.93 in East 6.4 mph 9.2 mph 98 % 0.00 in
10:55 48.2 °F 47.7 °F 29.92 in ENE 5.6 mph 9.2 mph 98 % 0.00 in
11:01 48.3 °F 47.5 °F 29.92 in ENE 5.0 mph 6.9 mph 97 % 0.00 in
11:06 48.4 °F 47.9 °F 29.92 in ENE 8.8 mph 11.0 mph 98 % 0.00 in
11:11 48.2 °F 47.7 °F 29.92 in ENE 7.6 mph 11.5 mph 98 % 0.00 in
11:16 48.1 °F 47.6 °F 29.93 in NE 5.8 mph 11.5 mph 98 % 0.00 in
11:21 48.1 °F 47.6 °F 29.92 in NE 5.9 mph 9.2 mph 98 % 0.00 in
11:26 48.2 °F 47.7 °F 29.92 in ENE 5.2 mph 8.1 mph 98 % 0.00 in
11:31 48.2 °F 47.7 °F 29.92 in ENE 6.2 mph 9.2 mph 98 % 0.00 in
11:36 48.3 °F 47.8 °F 29.91 in East 5.1 mph 7.0 mph 98 % 0.00 in
11:41 48.3 °F 47.8 °F 29.92 in ENE 5.3 mph 6.9 mph 98 % 0.00 in
11:46 48.5 °F 48.0 °F 29.92 in East 5.1 mph 6.9 mph 98 % 0.00 in
11:51 48.5 °F 48.0 °F 29.92 in ENE 5.0 mph 10.4 mph 98 % 0.00 in
11:56 48.5 °F 48.0 °F 29.91 in ENE 4.9 mph 5.0 mph 98 % 0.00 in
12:01 48.6 °F 48.1 °F 29.91 in East 4.7 mph 6.9 mph 98 % 0.00 in
12:06 48.8 °F 48.3 °F 29.91 in East 4.9 mph 7.0 mph 98 % 0.00 in
12:11 49.0 °F 48.5 °F 29.91 in East 4.4 mph 5.8 mph 98 % 0.00 in
12:16 49.2 °F 48.7 °F 29.91 in ENE 5.4 mph 9.2 mph 98 % 0.00 in
12:21 49.1 °F 48.6 °F 29.91 in ENE 6.4 mph 9.2 mph 98 % 0.00 in
12:26 48.9 °F 48.4 °F 29.91 in ENE 6.2 mph 10.4 mph 98 % 0.00 in
12:31 48.7 °F 48.2 °F 29.92 in ENE 7.3 mph 10.4 mph 98 % 0.00 in
12:36 48.7 °F 48.2 °F 29.90 in ENE 7.0 mph 8.1 mph 98 % 0.00 in
12:41 48.6 °F 48.1 °F 29.91 in ENE 6.1 mph 12.7 mph 98 % 0.00 in
12:46 48.7 °F 48.2 °F 29.91 in ENE 6.3 mph 10.4 mph 98 % 0.00 in
12:51 49.0 °F 48.5 °F 29.90 in ENE 6.6 mph 9.2 mph 98 % 0.00 in
12:54 49.1 °F 48.6 °F 29.90 in NE 6.3 mph 10.4 mph 98 % 0.00 in
12:59 49.2 °F 48.7 °F 29.91 in ENE 8.6 mph 12.7 mph 98 % 0.00 in
13:04 49.1 °F 48.6 °F 29.91 in ENE 5.8 mph 11.5 mph 98 % 0.00 in
13:09 49.0 °F 48.5 °F 29.92 in ENE 8.5 mph 11.0 mph 98 % 0.00 in
13:14 48.7 °F 48.2 °F 29.92 in East 7.2 mph 11.0 mph 98 % 0.00 in
13:20 48.6 °F 48.1 °F 29.91 in ENE 8.0 mph 11.5 mph 98 % 0.00 in
13:25 48.6 °F 47.8 °F 29.92 in ENE 5.3 mph 10.4 mph 97 % 0.00 in
13:30 48.6 °F 47.8 °F 29.91 in East 3.2 mph 9.2 mph 97 % 0.00 in
13:35 48.7 °F 48.2 °F 29.91 in ENE 9.2 mph 11.5 mph 98 % 0.00 in
13:40 48.7 °F 48.2 °F 29.90 in ENE 4.8 mph 9.0 mph 98 % 0.00 in
13:45 48.9 °F 48.4 °F 29.90 in East 4.4 mph 8.1 mph 98 % 0.00 in
13:50 48.9 °F 48.4 °F 29.90 in East 5.5 mph 11.5 mph 98 % 0.00 in
13:55 48.8 °F 48.3 °F 29.90 in ENE 5.9 mph 8.1 mph 98 % 0.00 in
14:00 49.0 °F 48.5 °F 29.90 in ENE 8.4 mph 10.4 mph 98 % 0.00 in
14:05 48.9 °F 48.4 °F 29.89 in East 5.3 mph 10.4 mph 98 % 0.00 in
14:10 48.9 °F 48.4 °F 29.90 in ENE 4.8 mph 11.0 mph 98 % 0.00 in
14:15 48.8 °F 48.3 °F 29.90 in East 5.8 mph 9.2 mph 98 % 0.00 in
14:20 48.9 °F 48.4 °F 29.90 in East 7.5 mph 10.4 mph 98 % 0.00 in
14:25 48.8 °F 48.3 °F 29.90 in NE 7.5 mph 12.7 mph 98 % 0.00 in
14:30 48.9 °F 48.4 °F 29.90 in ENE 6.7 mph 10.0 mph 98 % 0.00 in
14:35 49.0 °F 48.5 °F 29.90 in NE 5.8 mph 10.4 mph 98 % 0.00 in
14:40 49.0 °F 48.5 °F 29.90 in ENE 6.5 mph 10.4 mph 98 % 0.00 in
14:45 48.9 °F 48.4 °F 29.90 in ENE 6.4 mph 10.4 mph 98 % 0.00 in
14:50 48.8 °F 48.3 °F 29.90 in ENE 5.3 mph 9.2 mph 98 % 0.00 in
14:55 48.8 °F 48.3 °F 29.89 in NE 6.4 mph 9.2 mph 98 % 0.00 in
15:00 48.9 °F 48.4 °F 29.89 in ENE 7.0 mph 9.2 mph 98 % 0.00 in
15:05 48.8 °F 48.3 °F 29.88 in ENE 7.3 mph 10.4 mph 98 % 0.00 in
15:10 48.8 °F 48.3 °F 29.88 in NE 4.4 mph 8.1 mph 98 % 0.00 in
15:15 48.9 °F 48.4 °F 29.88 in NE 3.3 mph 5.8 mph 98 % 0.00 in
15:20 49.0 °F 48.5 °F 29.88 in ENE 4.0 mph 5.8 mph 98 % 0.00 in
15:30 48.9 °F 48.4 °F 29.87 in ENE 3.8 mph 7.0 mph 98 % 0.00 in
15:35 48.9 °F 48.4 °F 29.87 in ENE 8.0 mph 11.5 mph 98 % 0.00 in
15:40 48.7 °F 48.2 °F 29.87 in East 5.2 mph 9.2 mph 98 % 0.00 in
15:45 48.6 °F 48.1 °F 29.88 in NE 5.3 mph 8.1 mph 98 % 0.00 in
15:50 48.6 °F 48.1 °F 29.88 in ENE 3.7 mph 5.8 mph 98 % 0.00 in
15:55 48.6 °F 48.1 °F 29.87 in ENE 4.0 mph 7.0 mph 98 % 0.00 in
16:00 48.7 °F 48.2 °F 29.87 in ENE 3.8 mph 6.9 mph 98 % 0.00 in
16:05 48.5 °F 47.7 °F 29.87 in East 3.3 mph 8.1 mph 97 % 0.00 in
16:10 48.4 °F 47.6 °F 29.87 in ENE 8.0 mph 10.4 mph 97 % 0.00 in
16:15 48.4 °F 47.6 °F 29.86 in ENE 6.1 mph 8.1 mph 97 % 0.00 in
16:20 48.5 °F 47.7 °F 29.87 in ENE 4.9 mph 6.9 mph 97 % 0.00 in
16:25 48.4 °F 47.6 °F 29.87 in ENE 5.9 mph 8.1 mph 97 % 0.00 in
16:31 48.3 °F 47.5 °F 29.88 in ENE 3.7 mph 8.1 mph 97 % 0.00 in
16:37 48.2 °F 47.7 °F 29.88 in ENE 5.7 mph 8.1 mph 98 % 0.00 in
16:42 48.2 °F 47.7 °F 29.88 in ENE 2.8 mph 9.2 mph 98 % 0.00 in
16:47 48.2 °F 47.7 °F 29.88 in ENE 4.7 mph 8.1 mph 98 % 0.00 in
16:52 48.2 °F 47.7 °F 29.88 in ENE 4.7 mph 6.9 mph 98 % 0.00 in
16:57 48.2 °F 47.7 °F 29.87 in ENE 5.8 mph 7.0 mph 98 % 0.00 in
17:02 48.2 °F 47.7 °F 29.88 in ENE 6.9 mph 8.1 mph 98 % 0.00 in
17:03 48.1 °F 47.6 °F 29.87 in East 5.4 mph 8.1 mph 98 % 0.00 in
17:08 48.1 °F 47.6 °F 29.87 in East 5.4 mph 7.0 mph 98 % 0.00 in
17:13 48.1 °F 47.6 °F 29.88 in ENE 4.5 mph 9.2 mph 98 % 0.00 in
17:18 48.2 °F 47.7 °F 29.87 in ENE 3.4 mph 4.0 mph 98 % 0.00 in
17:21 48.2 °F 47.7 °F 29.87 in ENE 5.9 mph 8.1 mph 98 % 0.00 in
17:26 48.1 °F 47.6 °F 29.87 in NE 4.7 mph 9.2 mph 98 % 0.00 in
17:31 48.1 °F 47.6 °F 29.87 in ENE 3.5 mph 10.4 mph 98 % 0.00 in
17:36 48.1 °F 47.6 °F 29.87 in ENE 5.6 mph 9.2 mph 98 % 0.00 in
17:41 48.1 °F 47.6 °F 29.87 in NE 4.9 mph 6.9 mph 98 % 0.00 in
17:46 48.0 °F 47.5 °F 29.87 in ENE 4.3 mph 8.1 mph 98 % 0.00 in
17:52 47.9 °F 47.4 °F 29.88 in ENE 3.7 mph 6.9 mph 98 % 0.00 in
17:57 47.9 °F 47.4 °F 29.88 in ENE 3.6 mph 9.0 mph 98 % 0.00 in
18:02 47.9 °F 47.4 °F 29.88 in ENE 3.9 mph 8.1 mph 98 % 0.00 in
18:07 47.9 °F 47.4 °F 29.88 in ENE 3.0 mph 4.6 mph 98 % 0.00 in
18:12 47.9 °F 47.4 °F 29.88 in ENE 3.1 mph 6.9 mph 98 % 0.00 in
18:17 47.9 °F 47.4 °F 29.87 in ENE 4.5 mph 8.1 mph 98 % 0.00 in
18:22 47.9 °F 47.4 °F 29.88 in ENE 5.1 mph 7.0 mph 98 % 0.00 in
18:27 47.8 °F 47.3 °F 29.88 in ENE 4.3 mph 9.0 mph 98 % 0.00 in
18:32 47.7 °F 47.2 °F 29.87 in ENE 4.0 mph 6.9 mph 98 % 0.00 in
18:37 47.7 °F 47.2 °F 29.87 in NE 3.6 mph 5.8 mph 98 % 0.00 in
18:42 47.7 °F 47.2 °F 29.87 in East 4.0 mph 6.9 mph 98 % 0.00 in
18:47 47.7 °F 47.1 °F 29.87 in ENE 5.0 mph 8.0 mph 98 % 0.00 in
18:52 47.7 °F 47.1 °F 29.87 in ENE 3.0 mph 7.0 mph 98 % 0.00 in
18:57 47.6 °F 47.1 °F 29.87 in ENE 3.7 mph 6.9 mph 98 % 0.00 in
19:02 47.6 °F 47.1 °F 29.87 in ENE 3.0 mph 7.0 mph 98 % 0.00 in
19:07 47.6 °F 47.1 °F 29.88 in ENE 3.0 mph 9.0 mph 98 % 0.00 in
19:12 47.6 °F 47.1 °F 29.87 in ENE 5.0 mph 10.0 mph 98 % 0.00 in
19:17 47.5 °F 47.0 °F 29.87 in ENE 4.0 mph 5.8 mph 98 % 0.00 in
19:22 47.5 °F 47.0 °F 29.87 in ENE 5.0 mph 7.0 mph 98 % 0.00 in
19:27 47.4 °F 46.9 °F 29.87 in ENE 6.0 mph 9.0 mph 98 % 0.00 in
19:32 47.4 °F 46.9 °F 29.87 in ENE 5.0 mph 8.0 mph 98 % 0.00 in
19:37 47.3 °F 46.8 °F 29.88 in ENE 7.0 mph 9.0 mph 98 % 0.00 in
19:42 47.3 °F 46.8 °F 29.88 in ENE 6.0 mph 12.0 mph 98 % 0.00 in
19:47 47.2 °F 46.7 °F 29.88 in ENE 7.0 mph 12.0 mph 98 % 0.00 in
19:52 47.2 °F 46.7 °F 29.88 in ENE 6.0 mph 10.0 mph 98 % 0.00 in
19:57 47.2 °F 46.7 °F 29.88 in ENE 5.2 mph 9.0 mph 98 % 0.00 in
20:02 47.2 °F 46.7 °F 29.89 in ENE 5.4 mph 8.0 mph 98 % 0.00 in
20:07 47.2 °F 46.7 °F 29.89 in ENE 7.5 mph 10.4 mph 98 % 0.00 in
20:12 47.2 °F 46.7 °F 29.89 in ENE 5.2 mph 8.1 mph 98 % 0.00 in
20:17 47.2 °F 46.7 °F 29.89 in East 4.7 mph 9.2 mph 98 % 0.00 in
20:22 47.2 °F 46.7 °F 29.89 in ENE 3.3 mph 6.9 mph 98 % 0.00 in
20:27 47.2 °F 46.7 °F 29.89 in East 5.1 mph 6.9 mph 98 % 0.00 in
20:32 47.2 °F 46.7 °F 29.89 in ENE 6.5 mph 8.1 mph 98 % 0.00 in
20:37 47.2 °F 46.7 °F 29.88 in ENE 5.6 mph 9.2 mph 98 % 0.00 in
20:42 47.1 °F 46.6 °F 29.90 in East 6.3 mph 11.5 mph 98 % 0.00 in
20:47 47.0 °F 46.5 °F 29.90 in ENE 8.2 mph 10.4 mph 98 % 0.00 in
20:52 47.0 °F 46.5 °F 29.90 in ENE 6.0 mph 10.4 mph 98 % 0.00 in
20:57 46.9 °F 46.4 °F 29.90 in ENE 5.8 mph 11.5 mph 98 % 0.00 in
21:02 46.9 °F 46.4 °F 29.90 in ENE 8.4 mph 11.5 mph 98 % 0.00 in
21:07 46.9 °F 46.4 °F 29.90 in ENE 7.2 mph 10.4 mph 98 % 0.00 in
21:13 46.9 °F 46.4 °F 29.90 in ENE 7.0 mph 12.7 mph 98 % 0.00 in
21:18 47.0 °F 46.5 °F 29.90 in ENE 7.1 mph 10.4 mph 98 % 0.00 in
21:23 46.9 °F 46.4 °F 29.90 in ENE 6.7 mph 11.5 mph 98 % 0.00 in
21:28 47.0 °F 46.5 °F 29.90 in East 5.9 mph 8.1 mph 98 % 0.00 in
21:33 47.0 °F 46.5 °F 29.89 in East 6.0 mph 8.1 mph 98 % 0.00 in
21:38 47.0 °F 46.5 °F 29.90 in ENE 5.3 mph 6.9 mph 98 % 0.00 in
21:43 47.0 °F 46.5 °F 29.90 in East 5.0 mph 5.8 mph 98 % 0.00 in
21:48 46.9 °F 46.4 °F 29.90 in ENE 6.0 mph 8.1 mph 98 % 0.00 in
21:53 46.9 °F 46.4 °F 29.90 in ENE 4.9 mph 6.9 mph 98 % 0.00 in
21:58 46.9 °F 46.4 °F 29.90 in ENE 5.2 mph 6.9 mph 98 % 0.00 in
22:03 46.9 °F 46.4 °F 29.90 in East 5.6 mph 6.9 mph 98 % 0.00 in
22:08 46.9 °F 46.4 °F 29.89 in East 5.9 mph 8.1 mph 98 % 0.00 in
22:13 46.9 °F 46.4 °F 29.89 in East 4.7 mph 9.2 mph 98 % 0.00 in
22:18 46.9 °F 46.4 °F 29.89 in ENE 4.1 mph 5.8 mph 98 % 0.00 in
22:23 46.8 °F 46.3 °F 29.90 in ENE 4.4 mph 5.8 mph 98 % 0.00 in
22:28 46.9 °F 46.4 °F 29.90 in ENE 3.3 mph 5.8 mph 98 % 0.00 in
22:34 46.9 °F 46.4 °F 29.90 in ENE 5.1 mph 5.8 mph 98 % 0.00 in
22:44 46.8 °F 46.3 °F 29.90 in ENE 3.5 mph 9.2 mph 98 % 0.00 in
22:49 46.8 °F 46.3 °F 29.90 in ENE 4.5 mph 6.9 mph 98 % 0.00 in
22:54 46.8 °F 46.3 °F 29.90 in ENE 4.9 mph 6.9 mph 98 % 0.00 in
22:59 46.7 °F 46.2 °F 29.90 in East 4.9 mph 10.4 mph 98 % 0.00 in
23:04 46.7 °F 46.2 °F 29.90 in East 5.2 mph 7.0 mph 98 % 0.00 in
23:09 46.7 °F 46.2 °F 29.90 in ENE 6.2 mph 7.0 mph 98 % 0.00 in
23:14 46.8 °F 46.3 °F 29.90 in ENE 6.0 mph 10.0 mph 98 % 0.00 in
23:19 46.9 °F 46.4 °F 29.90 in ENE 7.0 mph 10.0 mph 98 % 0.00 in
23:24 46.9 °F 46.4 °F 29.91 in ENE 6.9 mph 11.5 mph 98 % 0.00 in
23:29 47.0 °F 46.5 °F 29.91 in ENE 7.5 mph 10.4 mph 98 % 0.00 in
23:34 47.1 °F 46.6 °F 29.91 in ENE 3.6 mph 4.6 mph 98 % 0.00 in
23:39 47.1 °F 46.6 °F 29.91 in East 5.0 mph 6.9 mph 98 % 0.00 in
23:44 47.2 °F 46.7 °F 29.91 in ENE 3.6 mph 5.8 mph 98 % 0.00 in
23:49 47.2 °F 46.7 °F 29.91 in ENE 4.2 mph 5.8 mph 98 % 0.00 in
23:54 47.2 °F 46.7 °F 29.90 in ENE 3.9 mph 4.6 mph 98 % 0.00 in
23:59 47.2 °F 46.7 °F 29.90 in ENE 4.8 mph 6.9 mph 98 % 0.00 in
Crab Meadow Weather
Compliments of Weather Underground - 3 mb

Script developed by  Jim McMurry - jmcmurry@mwt.net Adapted for the template by  Wim van der Kuil - Leuven-Template.eu

Recycling: Americans use 85,000,000 tons of paper a year; about 680 pounds per person.